THOR AGENA D R/B

Satellite information

Favourite Embed

Satellite Type and Status

ROCKET BODYIN ORBIT

Key statistics

Satellite THOR AGENA D R/B at a glance.

Uptime

22239

Days in orbit

Revolutions

≈ 14.3

Per day

Orbit

SSO

Sun Synchronous Orbit

Inclination

99.8

Latest

Satellite identification and parameters

Extended collection of information and parameters for THOR AGENA D R/B.

Object identification

Identified? True

Debris? False

Object name: THOR AGENA D R/B

International designator: 1964-031C

Object number (NORAD): 815

Object ID (CCSDS): 815

Country: UNITED STATES OF AMERICA (US)

Current information (Y/N): Y

RCS size: LARGE

Orbital parameters

Period: 100.82 minutes

Inclination: 99.8143 deg

SMA: 7175.597 km

Apoapsis: 805.922 km

Periapsis: 789.003 km

RAAN: 23.5324 deg

Eccentricy: 0.0011789

Argument of periapsis: 5.5744 deg

Mean anomaly: 354.5562 deg

Mean motion: 14.28287639 rev/day

Mean motion (dot): 0.00000189 rev/day2

B* drag term: 0.000097496 1/REarth

Two-line elements (TLE)

Creation date: May 8, 2025, 3:01 a.m.

Reference frame: TEME

Reference center: EARTH

Epoch: May 7, 2025, 11:12 p.m. UTC

TLE line 0: 0 THOR AGENA D R/B

TLE line 1: 1 00815U 64031C 25127.96671584 .00000189 00000-0 97496-4 0 9998

TLE line 2: 2 00815 99.8143 23.5324 0011789 5.5744 354.5562 14.28287639163156

Live tracking on map

Real-time ground track for satellite THOR AGENA D R/B.

In-orbit conjunctions

A list of the most updated potential collisions computed for object THOR AGENA D R/B.

Target Orbit TCA Probability of collision Miss distance Type
SL-12 DEB LEO 2025-04-28 05:38:54 0.0002930541 326.0 (m) DEBRIS
FENGYUN 1C DEB SSO 2025-01-13 12:36:10 0.000145332 239.0 (m) DEBRIS
FENGYUN 1C DEB SSO 2024-11-10 13:45:26 0.0004748621 670.0 (m) DEBRIS
CZ-6A DEB LEO 2024-11-07 13:38:40 0.0001969211 688.0 (m) DEBRIS
FENGYUN 1C DEB SSO 2024-09-26 20:32:05 0.0001504256 249.0 (m) DEBRIS

Associated space launch

The DSAP-1 (Defense Satellite Application Program Block 1) satellites series, also known as P-35, was the first series of military meteorologal satellites of the USA.

THOR AGENA D R/B was lifted into orbit during the mission ‘Thor SLV-2 Agena D | DSAP-1 F8 & F9’, on board a Thor SLV-2 Agena D space rocket.

The launch took place on June 18, 1964, 4:56 a.m. from Space Launch Complex 1W.

For more information about the launch, click the button.

Launch to space Thor SLV-2 Agena D | DSAP-1 F8 & F9
Thor SLV-2 Agena D | DSAP-1 F8 & F9

Agency: N/A

Status: Launch Successful

Launch date: June 18, 1964, 4:56 a.m. UTC

Rocket: Thor SLV-2 Agena D

Launch pad: Space Launch Complex 1W

Location: Vandenberg SFB, CA, USA

...

Latest news about this satellite

There are no fresh news available about this satellite. Check back as we update our databases every day.


Newsletter sign-up

Weekly statistics, charts and insights to help you stay on top of the space industry.